When you browse on this site, cookies collect data to enhance your experience and personalize the content and advertising you see.
Visit our Privacy Policy to learn more. By continuing to use the site, you agree to this use of cookies and data.
  • In Czech Republic
  • List of Countries
  • For 7 days
  • Water Temperature
  • Weather Map
  • Weather Widgets
  • user-avatar
    Login

    Hourly Weather Yulara

    Today, 7 April, Tuesday

    Time Temperature Precipitation Wind Pressure Humidity
    00:00 +20°C° 0 mm 5 mps 719 mmHg 32%
    01:00 +19°C° 0 mm 4 mps 719 mmHg 34%
    02:00 +18°C° 0 mm 4 mps 719 mmHg 36%
    03:00 +18°C° 0 mm 4 mps 719 mmHg 37%
    04:00 +18°C° 0 mm 3 mps 719 mmHg 36%
    05:00 +18°C° 0 mm 3 mps 719 mmHg 36%
    06:00 +18°C° 0 mm 3 mps 720 mmHg 35%
    07:00 +19°C° 0 mm 4 mps 720 mmHg 32%
    08:00 +21°C° 0 mm 5 mps 721 mmHg 30%
    09:00 +22°C° 0 mm 5 mps 721 mmHg 27%
    10:00 +23°C° 0 mm 5 mps 721 mmHg 25%
    11:00 +25°C° 0 mm 4 mps 721 mmHg 24%
    12:00 +26°C° 0 mm 4 mps 720 mmHg 22%
    13:00 +27°C° 0 mm 5 mps 720 mmHg 21%
    14:00 +28°C° 0 mm 5 mps 719 mmHg 21%
    15:00 +28°C° 0 mm 5 mps 719 mmHg 20%
    16:00 +27°C° 0 mm 6 mps 719 mmHg 23%
    17:00 +26°C° 0 mm 6 mps 719 mmHg 27%
    18:00 +23°C° 0 mm 7 mps 719 mmHg 30%
    19:00 +22°C° 0 mm 7 mps 719 mmHg 33%
    20:00 +22°C° 0 mm 7 mps 719 mmHg 36%
    21:00 +21°C° 0 mm 7 mps 720 mmHg 39%
    22:00 +20°C° 0 mm 6 mps 720 mmHg 40%
    23:00 +20°C° 0 mm 5 mps 719 mmHg 41%

    Tomorrow, 8 April, Wednesday

    Time Temperature Precipitation Wind Pressure Humidity
    00:00 +19°C° 0 mm 5 mps 719 mmHg 43%
    01:00 +19°C° 0 mm 4 mps 719 mmHg 43%
    02:00 +18°C° 0 mm 4 mps 719 mmHg 43%
    03:00 +18°C° 0 mm 4 mps 719 mmHg 43%
    04:00 +18°C° 0 mm 4 mps 719 mmHg 43%
    05:00 +17°C° 0 mm 4 mps 719 mmHg 43%
    06:00 +17°C° 0 mm 4 mps 719 mmHg 43%
    07:00 +19°C° 0 mm 5 mps 720 mmHg 38%
    08:00 +21°C° 0 mm 5 mps 720 mmHg 33%
    09:00 +23°C° 0 mm 6 mps 721 mmHg 28%
    10:00 +24°C° 0 mm 6 mps 720 mmHg 26%
    11:00 +27°C° 0 mm 5 mps 720 mmHg 24%
    12:00 +28°C° 0 mm 5 mps 720 mmHg 22%
    13:00 +29°C° 0 mm 4 mps 719 mmHg 21%
    14:00 +29°C° 0 mm 4 mps 719 mmHg 21%
    15:00 +30°C° 0 mm 3 mps 718 mmHg 21%
    16:00 +29°C° 0 mm 3 mps 718 mmHg 22%
    17:00 +28°C° 0 mm 3 mps 719 mmHg 23%
    18:00 +28°C° 0 mm 3 mps 719 mmHg 25%
    19:00 +27°C° 0 mm 3 mps 719 mmHg 26%
    20:00 +26°C° 0 mm 3 mps 720 mmHg 27%
    21:00 +25°C° 0 mm 3 mps 720 mmHg 28%
    22:00 +24°C° 0 mm 3 mps 720 mmHg 30%
    23:00 +22°C° 0 mm 4 mps 720 mmHg 32%

    Day after tomorrow, 9 April, Thursday

    Time Temperature Precipitation Wind Pressure Humidity
    00:00 +21°C° 0 mm 4 mps 720 mmHg 34%
    01:00 +21°C° 0 mm 4 mps 720 mmHg 36%
    02:00 +20°C° 0 mm 4 mps 720 mmHg 38%
    03:00 +19°C° 0 mm 3 mps 720 mmHg 40%
    04:00 +19°C° 0 mm 4 mps 720 mmHg 42%
    05:00 +18°C° 0 mm 4 mps 720 mmHg 43%
    06:00 +18°C° 0 mm 4 mps 720 mmHg 44%
    07:00 +20°C° 0 mm 5 mps 721 mmHg 40%
    08:00 +22°C° 0 mm 5 mps 721 mmHg 36%
    09:00 +24°C° 0 mm 6 mps 722 mmHg 32%
    10:00 +26°C° 0 mm 6 mps 722 mmHg 30%
    11:00 +27°C° 0 mm 6 mps 721 mmHg 27%
    12:00 +29°C° 0 mm 5 mps 721 mmHg 25%
    13:00 +29°C° 0 mm 5 mps 721 mmHg 25%
    14:00 +29°C° 0 mm 5 mps 720 mmHg 24%
    15:00 +29°C° 0 mm 5 mps 719 mmHg 24%
    16:00 +28°C° 0 mm 5 mps 720 mmHg 25%
    17:00 +27°C° 0 mm 5 mps 720 mmHg 27%
    18:00 +27°C° 0 mm 5 mps 720 mmHg 28%
    19:00 +26°C° 0 mm 5 mps 721 mmHg 30%
    20:00 +25°C° 0 mm 4 mps 721 mmHg 32%
    21:00 +23°C° 0 mm 4 mps 722 mmHg 34%
    22:00 +22°C° 0 mm 5 mps 722 mmHg 35%
    23:00 +21°C° 0 mm 5 mps 722 mmHg 37%

    10 April, Friday

    Time Temperature Precipitation Wind Pressure Humidity
    00:00 +20°C° 0 mm 5 mps 722 mmHg 38%
    01:00 +19°C° 0 mm 4 mps 721 mmHg 41%
    02:00 +19°C° 0 mm 4 mps 721 mmHg 43%
    03:00 +18°C° 0 mm 4 mps 721 mmHg 46%
    04:00 +18°C° 0 mm 4 mps 721 mmHg 47%
    05:00 +17°C° 0 mm 3 mps 722 mmHg 48%
    06:00 +17°C° 0 mm 3 mps 722 mmHg 49%
    07:00 +19°C° 0 mm 4 mps 722 mmHg 43%
    08:00 +21°C° 0 mm 5 mps 723 mmHg 38%
    09:00 +23°C° 0 mm 5 mps 723 mmHg 32%
    10:00 +24°C° 0 mm 6 mps 723 mmHg 29%
    11:00 +27°C° 0 mm 6 mps 723 mmHg 26%
    12:00 +28°C° 0 mm 6 mps 722 mmHg 24%
    13:00 +29°C° 0 mm 6 mps 722 mmHg 23%
    14:00 +29°C° 0 mm 5 mps 721 mmHg 22%
    15:00 +30°C° 0 mm 5 mps 721 mmHg 21%
    16:00 +29°C° 0 mm 4 mps 721 mmHg 23%
    17:00 +27°C° 0 mm 4 mps 721 mmHg 25%
    18:00 +26°C° 0 mm 3 mps 721 mmHg 27%
    19:00 +25°C° 0 mm 3 mps 721 mmHg 30%
    20:00 +24°C° 0 mm 3 mps 722 mmHg 32%
    21:00 +22°C° 0 mm 3 mps 722 mmHg 34%
    22:00 +21°C° 0 mm 4 mps 722 mmHg 34%
    23:00 +21°C° 0 mm 4 mps 722 mmHg 34%

    11 April, Saturday

    Time Temperature Precipitation Wind Pressure Humidity
    00:00 +20°C° 0 mm 4 mps 722 mmHg 35%
    01:00 +20°C° 0 mm 4 mps 722 mmHg 36%
    02:00 +19°C° 0 mm 4 mps 721 mmHg 37%
    03:00 +18°C° 0 mm 3 mps 721 mmHg 39%
    04:00 +18°C° 0 mm 3 mps 721 mmHg 39%
    05:00 +18°C° 0 mm 3 mps 721 mmHg 40%
    06:00 +17°C° 0 mm 3 mps 722 mmHg 40%
    07:00 +20°C° 0 mm 4 mps 722 mmHg 35%
    08:00 +22°C° 0 mm 5 mps 723 mmHg 31%
    09:00 +24°C° 0 mm 6 mps 723 mmHg 26%
    10:00 +27°C° 0 mm 6 mps 723 mmHg 23%
    11:00 +28°C° 0 mm 6 mps 722 mmHg 21%
    12:00 +30°C° 0 mm 6 mps 722 mmHg 18%
    13:00 +32°C° 0 mm 5 mps 721 mmHg 17%
    14:00 +32°C° 0 mm 5 mps 721 mmHg 16%
    15:00 +33°C° 0 mm 5 mps 720 mmHg 16%
    16:00 +32°C° 0 mm 4 mps 720 mmHg 17%
    17:00 +29°C° 0 mm 4 mps 720 mmHg 18%
    18:00 +28°C° 0 mm 4 mps 720 mmHg 20%
    19:00 +27°C° 0 mm 4 mps 720 mmHg 21%
    20:00 +25°C° 0 mm 4 mps 721 mmHg 23%
    21:00 +23°C° 0 mm 4 mps 721 mmHg 24%
    22:00 +22°C° 0 mm 4 mps 721 mmHg 25%
    23:00 +21°C° 0 mm 4 mps 721 mmHg 27%

    12 April, Sunday

    Time Temperature Precipitation Wind Pressure Humidity
    00:00 +21°C° 0 mm 3 mps 721 mmHg 28%
    01:00 +20°C° 0 mm 3 mps 720 mmHg 28%
    02:00 +20°C° 0 mm 3 mps 720 mmHg 28%
    03:00 +19°C° 0 mm 3 mps 720 mmHg 28%
    04:00 +19°C° 0 mm 3 mps 720 mmHg 29%
    05:00 +19°C° 0 mm 3 mps 720 mmHg 29%
    06:00 +18°C° 0 mm 3 mps 720 mmHg 29%
    07:00 +21°C° 0 mm 4 mps 720 mmHg 26%
    08:00 +23°C° 0 mm 4 mps 721 mmHg 22%
    09:00 +27°C° 0 mm 4 mps 721 mmHg 19%
    10:00 +28°C° 0 mm 5 mps 721 mmHg 17%
    11:00 +30°C° 0 mm 5 mps 721 mmHg 15%
    12:00 +33°C° 0 mm 5 mps 720 mmHg 13%
    13:00 +33°C° 0 mm 5 mps 720 mmHg 12%
    14:00 +34°C° 0 mm 5 mps 719 mmHg 12%
    15:00 +35°C° 0 mm 4 mps 718 mmHg 11%
    16:00 +33°C° 0 mm 4 mps 718 mmHg 13%
    17:00 +30°C° 0 mm 3 mps 718 mmHg 14%
    18:00 +29°C° 0 mm 3 mps 718 mmHg 16%
    19:00 +27°C° 0 mm 3 mps 719 mmHg 18%
    20:00 +26°C° 0 mm 3 mps 719 mmHg 21%
    21:00 +25°C° 0 mm 3 mps 720 mmHg 23%
    22:00 +24°C° 0 mm 3 mps 719 mmHg 26%
    23:00 +23°C° 0 mm 4 mps 719 mmHg 29%
    Show more